Regional Weather Roundup
Issued by NWS Upton, NY

Current Version | Previous Version | Text Only | Print | Product List | Glossary On
Versions: 1 2 3 4 5 6 7 8 9 10 11 12 13 14 15 16 17 18 19 20 21 22 23 24 25 26 27 28 29 30 31 32 33 34 35 36 37 38 39 40 41 42 43 44 45 46 47 48 49 50
000 ASUS41 KOKX 272104 RWROKX REGIONAL WEATHER ROUNDUP NATIONAL WEATHER SERVICE NEW YORK NY 500 PM EDT TUE SEP 27 2016 NOTE: "FAIR" INDICATES FEW OR NO CLOUDS BELOW 12,000 FEET WITH NO SIGNIFICANT WEATHER AND/OR OBSTRUCTIONS TO VISIBILITY. NYZ071-072-176-178-NJZ106-104-272200- NEW YORK CITY METRO AREA CITY SKY/WX TMP DP RH WIND PRES REMARKS Central Park MOSUNNY 73 52 47 VRB5 29.90S LaGuardia APRT PTSUNNY 76 50 40 SW8 29.87S Kennedy INTL PTSUNNY 73 55 53 SW10 29.89S Newark/Liberty MOSUNNY 75 49 39 S6 29.88S Bronx Bot Gard N/A 75 50 41 SW1 29.88S Wall St Helipt PTCLDY 75 57 53 SW7G49 29.89S Teterboro SUNNY 75 48 38 W6 29.86S $$ NYZ177-179-078>081-272200- LONG ISLAND NEW YORK CITY SKY/WX TMP DP RH WIND PRES REMARKS Farmingdale PTSUNNY 73 54 51 SW12 29.88F MacArthur/ISP CLOUDY 71 61 70 SW7 29.89S Shirley CLOUDY 69 61 75 SW6 29.90S Riverhead NOT AVBL Westhampton CLOUDY 69 61 75 S5 29.91S Southampton N/A 68 64 88 SW3 29.86R Bridgehampton N/A 70 64 83 CALM 29.75S East Hampton FAIR 68 62 83 S3 29.89S Montauk N/A 68 63 84 CALM 29.91S $$ NYZ052-065-067-272200- HUDSON VALLEY CITY SKY/WX TMP DP RH WIND PRES REMARKS White Plains MOSUNNY 72 52 49 VRB6 29.88S Newburgh MOSUNNY 72 52 49 SW8 29.89F Montgomery SUNNY 73 48 41 SW8 29.87S Poughkeepsie MOSUNNY 72 50 45 S7 29.87S Albany MOSUNNY 71 49 45 E5 29.87S $$ NJZ001-105-106-008-010-013-015-019>022-104-272200- NEW JERSEY CITY SKY/WX TMP DP RH WIND PRES REMARKS Newark/Liberty MOSUNNY 75 49 39 S6 29.88S Teterboro SUNNY 75 48 38 W6 29.86S Caldwell SUNNY 74 50 42 SW3 29.88S Morristown MOSUNNY 73 48 40 SW5 29.89S Somerville SUNNY 75 49 39 VRB3 29.87S Linden NOT AVBL Sussex SUNNY 72 50 45 VRB3 29.88F Abdover N/A 72 49 44 SW3 29.89S Trenton SUNNY 74 47 38 W6 29.88F Millville CLOUDY 68 63 84 CALM 29.91S Atlantic City CLOUDY 68 61 78 SW5 29.91S Wrightstown PTSUNNY 74 57 56 SW7 29.87R Toms River CLOUDY 71 62 73 S5 29.91R Belmar MOSUNNY 73 59 61 S5 29.91R $$ PAZ047>061-062-071-272200- EASTERN PENNSYLVANIA CITY SKY/WX TMP DP RH WIND PRES REMARKS Philadelphia MOSUNNY 75 51 43 SW8 29.89F Allentown SUNNY 74 44 34 SW10 29.88F Scranton SUNNY 71 45 39 SW9 29.89R $$ CTZ002-004>006-009-010-012-RIZ004-006-007-MAZ004-011-015-272200- SOUTHERN NEW ENGLAND IN CT CITY SKY/WX TMP DP RH WIND PRES REMARKS Bradley INTL PTSUNNY 73 55 53 S5 29.88F Hartford MOSUNNY 72 57 59 E6 29.87F Danbury MOSUNNY 72 52 49 CALM 29.89S Wtrbury/Oxford PTSUNNY 72 54 53 CALM 29.93S Bridgeport MOSUNNY 72 58 61 SE5 29.88F Meriden MOSUNNY 74 56 53 S3 29.88S New Haven PTSUNNY 70 59 68 S7 29.89S Chester FAIR 70 61 73 S8 29.90S Groton PTSUNNY 71 61 70 S9 29.90R Wilimantic MOSUNNY 73 60 63 CALM 29.90R IN RI CITY SKY/WX TMP DP RH WIND PRES REMARKS Providence PTSUNNY 70 59 68 SE6 29.90S Block Island CLOUDY 67 62 84 CALM 29.91R Westerly PTSUNNY 69 61 75 S7 29.91R IN MA CITY SKY/WX TMP DP RH WIND PRES REMARKS Boston CLOUDY 68 59 73 E7 29.90R Worcester CLOUDY 67 53 61 SW5 29.92R Westfield SUNNY 72 53 51 CALM 29.88F Provincetown CLOUDY 66 60 81 CALM 29.92R Nantucket CLOUDY 67 65 93 SW7 29.92R $$ ANZ330-335-338-340-345-350-353-355-272200- COASTAL MARINE OBSERVATIONS STATION/POSITION TIME SKY/WX TEMP WIND PRES VSBY WAVE AIR SEA DIR/SP/G HT/PER (UTC) (F) (DEG/KT/KT) (MB) (MI) (FT/S) NY HARB ENTRANCE 1950 70 71 200/ 4/ 6 1012.1 4/ 6 20S FIRE ISLAND 1950 68 70 230/ 6/ 8 1012.2 4/ 6 GREAT SOUTH BAY 2015 69 70 210/ 6/ 6 N/A 23 SSW MONTAUK P 1950 67 68 230/ 4/ 6 1013.1 5/ 6 15 E BARNEGAT LI 2030 71 N/A 5/ 7 HUDSON CANYON 1950 69 69 1012.9 6/ 7 KINGS POINT 2030 75 73 1011.5 EXECUTION ROCKS 2045 74 210/ 2/ 2 N/A CENTRAL LI SOUND 2000 69 72 200/ 4/ 8 N/A 1 EASTERN LI SOUND NOT AVBL ROBBINS REEF 2030 73 200/ 7/ 9 1012.0 $$ >>>>>>>>>>>>>>>>>>>>>>>>>>>> KEY <<<<<<<<<<<<<<<<<<<<<<<<<<< > < > SKY/WX - Sky Condition/Present Weather < > TMP - Temperature in Fahrenheit < > DP - Dew Point in Fahrenheit < > RH - Relative Humidity in Percent < > WIND - Direction (from) and Speed in MPH < > PRES - Mean Sea Level Pressure (inches of Hg) < > WCI - Wind Chill Index < > VSB - VISIBILITY IN MILES < > HX - HEAT INDEX < > TC - TEMPERATURE IN CELSIUS < > VRB - VARIABLE WIND DIRECTION < > < >>>>>>>>>>>>>>>>>>>>>>>>>>>> KEY <<<<<<<<<<<<<<<<<<<<<<<<<<<

USA.gov is the U.S. government's official web portal to all federal, state and local government web resources and services.